TimeMDT,TemperatureF,Dew PointF,Humidity,Sea Level PressureIn,VisibilityMPH,Wind Direction,Wind SpeedMPH,Gust SpeedMPH,PrecipitationIn,Events,Conditions,WindDirDegrees,DateUTC
12:15 AM,75.4,55.4,50,30.10,10.0,NW,5.8,16.1,N/A,,Scattered Clouds,320,2013-07-22 06:15:00
12:35 AM,73.9,55.0,52,30.10,10.0,North,5.8,-,N/A,,Clear,350,2013-07-22 06:35:00
12:55 AM,73.4,54.9,52,30.10,10.0,NNE,3.5,-,N/A,,Clear,20,2013-07-22 06:55:00
1:15 AM,72.9,54.9,53,30.09,10.0,Calm,Calm,-,N/A,,Clear,0,2013-07-22 07:15:00
1:35 AM,72.5,54.9,54,30.08,10.0,Calm,Calm,-,N/A,,Clear,0,2013-07-22 07:35:00
1:55 AM,72.0,54.5,54,30.08,10.0,Calm,Calm,-,N/A,,Clear,0,2013-07-22 07:55:00
2:15 AM,71.4,55.4,57,30.07,10.0,Calm,Calm,-,N/A,,Clear,0,2013-07-22 08:15:00
2:35 AM,70.7,55.2,58,30.06,10.0,East,3.5,-,N/A,,Clear,90,2013-07-22 08:35:00
2:55 AM,70.7,55.2,58,30.06,10.0,ENE,6.9,-,N/A,,Clear,70,2013-07-22 08:55:00
3:15 AM,71.2,55.4,57,30.06,10.0,Calm,Calm,-,N/A,,Clear,0,2013-07-22 09:15:00
3:35 AM,70.2,55.8,60,30.06,10.0,NW,5.8,-,N/A,,Clear,320,2013-07-22 09:35:00
3:55 AM,69.6,56.3,63,30.06,10.0,NNW,6.9,-,N/A,,Clear,330,2013-07-22 09:55:00
4:15 AM,70.0,55.8,61,30.06,10.0,NNW,6.9,-,N/A,,Clear,330,2013-07-22 10:15:00
4:35 AM,70.0,56.5,62,30.06,10.0,NNW,5.8,-,N/A,,Clear,340,2013-07-22 10:35:00
4:55 AM,69.4,57.0,65,30.07,10.0,NNW,3.5,-,N/A,,Clear,340,2013-07-22 10:55:00
5:15 AM,68.9,56.8,65,30.08,10.0,NNW,3.5,-,N/A,,Clear,340,2013-07-22 11:15:00
5:35 AM,66.7,57.0,71,30.08,10.0,WNW,4.6,-,N/A,,Clear,300,2013-07-22 11:35:00
5:55 AM,67.6,56.7,68,30.08,10.0,WSW,3.5,-,N/A,,Clear,250,2013-07-22 11:55:00
6:15 AM,67.3,56.7,69,30.09,10.0,ENE,3.5,-,N/A,,Clear,60,2013-07-22 12:15:00
6:35 AM,68.2,56.7,67,30.10,10.0,Calm,Calm,-,N/A,,Clear,0,2013-07-22 12:35:00
6:55 AM,69.3,57.4,66,30.10,10.0,NW,5.8,-,N/A,,Clear,320,2013-07-22 12:55:00
7:35 AM,71.8,57.9,62,30.10,10.0,NNE,3.5,-,N/A,,Clear,20,2013-07-22 13:35:00
8:35 AM,77.0,57.2,50,30.12,10.0,NNE,8.1,-,N/A,,Clear,20,2013-07-22 14:35:00
8:55 AM,78.4,56.5,47,30.12,10.0,NNE,8.1,-,N/A,,Clear,20,2013-07-22 14:55:00
9:15 AM,79.5,54.9,42,30.12,10.0,NNE,10.4,-,N/A,,Clear,20,2013-07-22 15:15:00
9:35 AM,80.4,54.9,41,30.12,10.0,NNE,9.2,-,N/A,,Clear,30,2013-07-22 15:35:00
9:55 AM,81.7,53.1,37,30.12,10.0,NE,8.1,-,N/A,,Clear,40,2013-07-22 15:55:00
10:15 AM,82.4,52.7,36,30.12,10.0,NNE,9.2,-,N/A,,Clear,20,2013-07-22 16:15:00
10:35 AM,83.7,52.3,34,30.12,10.0,NE,6.9,-,N/A,,Clear,40,2013-07-22 16:35:00
10:55 AM,84.9,52.7,33,30.11,10.0,NNW,5.8,-,N/A,,Clear,340,2013-07-22 16:55:00
11:15 AM,85.6,52.2,31,30.11,10.0,NNE,4.6,-,N/A,,Clear,20,2013-07-22 17:15:00
11:35 AM,86.0,52.2,31,30.10,10.0,Calm,Calm,-,N/A,,Clear,0,2013-07-22 17:35:00
11:55 AM,86.9,51.8,30,30.10,10.0,Calm,Calm,-,N/A,,Clear,0,2013-07-22 17:55:00
12:15 PM,88.2,52.0,29,30.09,10.0,NNE,8.1,-,N/A,,Clear,30,2013-07-22 18:15:00
12:35 PM,89.6,51.8,27,30.08,10.0,Calm,Calm,-,N/A,,Clear,0,2013-07-22 18:35:00
12:55 PM,89.6,51.8,27,30.08,10.0,East,8.1,-,N/A,,Clear,80,2013-07-22 18:55:00
1:15 PM,90.9,51.8,26,30.07,10.0,NE,4.6,-,N/A,Thunderstorm,Clear,50,2013-07-22 19:15:00
1:35 PM,91.2,51.4,26,30.05,10.0,East,4.6,-,N/A,,Clear,100,2013-07-22 19:35:00
1:55 PM,92.8,51.1,24,30.04,10.0,North,5.8,-,N/A,Thunderstorm,Clear,350,2013-07-22 19:55:00
2:15 PM,92.7,50.9,24,30.04,10.0,East,6.9,-,N/A,,Clear,80,2013-07-22 20:15:00
2:35 PM,93.4,50.4,23,30.03,10.0,NE,5.8,-,N/A,,Clear,40,2013-07-22 20:35:00
2:55 PM,92.7,49.8,23,30.02,10.0,Calm,Calm,-,N/A,,Scattered Clouds,0,2013-07-22 20:55:00
3:15 PM,94.5,49.5,22,30.01,10.0,East,5.8,-,N/A,,Clear,100,2013-07-22 21:15:00
3:35 PM,95.7,48.9,20,30.00,10.0,NE,5.8,-,N/A,,Clear,50,2013-07-22 21:35:00
3:55 PM,95.4,48.6,20,30.00,10.0,Calm,Calm,-,N/A,,Clear,0,2013-07-22 21:55:00
4:15 PM,95.2,47.8,20,30.00,10.0,East,5.8,-,N/A,,Clear,80,2013-07-22 22:15:00
4:35 PM,95.2,47.5,20,29.99,10.0,SE,4.6,-,N/A,,Clear,130,2013-07-22 22:35:00
4:55 PM,96.4,47.7,19,29.99,10.0,Calm,Calm,-,N/A,,Scattered Clouds,0,2013-07-22 22:55:00
5:15 PM,93.9,46.9,20,29.98,10.0,SW,5.8,-,N/A,,Mostly Cloudy,230,2013-07-22 23:15:00
5:35 PM,96.3,48.2,19,29.98,10.0,SW,9.2,-,N/A,,Mostly Cloudy,230,2013-07-22 23:35:00
5:55 PM,96.6,47.8,19,29.97,10.0,West,10.4,-,N/A,,Scattered Clouds,270,2013-07-22 23:55:00
6:15 PM,95.9,47.7,19,29.98,10.0,WNW,8.1,-,N/A,,Clear,300,2013-07-23 00:15:00
6:35 PM,95.0,47.3,20,29.97,10.0,WNW,6.9,-,N/A,,Clear,300,2013-07-23 00:35:00
6:55 PM,92.7,48.0,22,29.97,10.0,WNW,19.6,-,N/A,,Mostly Cloudy,290,2013-07-23 00:55:00
7:15 PM,90.5,48.6,24,29.97,10.0,WNW,19.6,24.2,N/A,,Scattered Clouds,290,2013-07-23 01:15:00
7:35 PM,88.5,49.3,26,29.98,10.0,WNW,16.1,23.0,N/A,,Scattered Clouds,300,2013-07-23 01:35:00
7:55 PM,87.8,48.9,26,29.98,10.0,WNW,13.8,19.6,N/A,,Mostly Cloudy,300,2013-07-23 01:55:00
8:15 PM,87.1,48.2,26,29.99,10.0,WNW,10.4,-,N/A,,Mostly Cloudy,290,2013-07-23 02:15:00
8:35 PM,86.9,47.7,26,30.00,10.0,West,9.2,-,N/A,,Scattered Clouds,260,2013-07-23 02:35:00
8:55 PM,85.3,48.0,27,30.02,10.0,SSW,9.2,-,N/A,Thunderstorm,Scattered Clouds,200,2013-07-23 02:55:00
9:15 PM,82.4,51.1,34,30.04,10.0,SSW,16.1,-,N/A,Thunderstorm,Thunderstorm,210,2013-07-23 03:15:00
9:35 PM,81.5,50.4,34,30.04,10.0,SW,6.9,-,N/A,,Clear,230,2013-07-23 03:35:00
9:55 PM,82.0,50.0,33,30.04,10.0,WSW,5.8,-,N/A,,Clear,240,2013-07-23 03:55:00
10:15 PM,83.3,49.5,31,30.05,10.0,Calm,Calm,-,N/A,,Clear,0,2013-07-23 04:15:00
10:35 PM,82.6,49.1,31,30.05,10.0,Calm,Calm,-,N/A,,Clear,0,2013-07-23 04:35:00
10:55 PM,80.6,51.1,36,30.06,10.0,NE,4.6,-,N/A,,Clear,50,2013-07-23 04:55:00
11:15 PM,79.0,53.2,41,30.06,10.0,NE,3.5,-,N/A,,Clear,40,2013-07-23 05:15:00
11:35 PM,77.9,52.9,42,30.06,10.0,NW,3.5,-,N/A,,Clear,310,2013-07-23 05:35:00
11:55 PM,77.0,52.0,42,30.07,10.0,West,3.5,-,N/A,,Clear,260,2013-07-23 05:55:00